This is the latest recevied weather packets stored in our database for station/object KD9IXX-13. If no packets are shown the sender has not sent any weather packets the latest 10 day(s).
| Time | Temp. | Humidity | Pressure | Rain* | Wind** | Luminosity | Snow |
|---|---|---|---|---|---|---|---|
| 1787889602 | 17.78° C | 93% | 1019 hPa | 0 mm | - | 0 W/m² | - |
| 1787888102 | 17.78° C | 92% | 1019 hPa | 0 mm | - | 0 W/m² | - |
| 1787887802 | 17.78° C | 92% | 1018.9 hPa | 0 mm | - | 0 W/m² | - |
| 1787886902 | 18.33° C | 90% | 1019.1 hPa | 0 mm | - | 0 W/m² | - |
| 1787886602 | 18.33° C | 90% | 1018.9 hPa | 0 mm | - | 0 W/m² | - |
| 1787886302 | 18.33° C | 91% | 1018.8 hPa | 0 mm | - | 0 W/m² | - |
| 1787886002 | 18.33° C | 90% | 1019.1 hPa | 0 mm | - | 0 W/m² | - |
| 1787885402 | 18.33° C | 89% | 1019 hPa | 0 mm | - | 0 W/m² | - |
| 1787884502 | 18.89° C | 87% | 1018.9 hPa | 0 mm | - | 0 W/m² | - |
| 1787884202 | 19.44° C | 86% | 1018.8 hPa | 0 mm | - | 0 W/m² | - |
| 1787883002 | 19.44° C | 87% | 1018.6 hPa | 0 mm | - | 0 W/m² | - |
| 1787882402 | 19.44° C | 87% | 1018.6 hPa | 0 mm | - | 0 W/m² | - |
| 1787881802 | 19.44° C | 86% | 1018.5 hPa | 0 mm | - | 0 W/m² | - |
| 1787881202 | 19.44° C | 86% | 1018.3 hPa | 0 mm | - | 0 W/m² | - |
| 1787879702 | 20° C | 84% | 1018.2 hPa | 0 mm | - | 0 W/m² | - |
| 1787878502 | 21.11° C | 81% | 1018.1 hPa | 0 mm | - | 0 W/m² | - |
| 1787878202 | 21.11° C | 80% | 1017.8 hPa | 0 mm | - | 0 W/m² | - |
| 1787877902 | 21.67° C | 78% | 1018 hPa | 0 mm | - | 0 W/m² | - |
| 1787877602 | 21.67° C | 77% | 1017.9 hPa | 0 mm | - | 0 W/m² | - |
| 1787877302 | 22.22° C | 76% | 1017.7 hPa | 0 mm | - | 1 W/m² | - |
| 1787877002 | 22.78° C | 73% | 1017.8 hPa | 0 mm | - | 3 W/m² | - |
| 1787876102 | 23.33° C | 70% | 1017.9 hPa | 0 mm | - | 10 W/m² | - |
| 1787875802 | 23.89° C | 69% | 1017.7 hPa | 0 mm | - | 13 W/m² | - |
| 1787874902 | 24.44° C | 67% | 1017.7 hPa | 0 mm | - | 26 W/m² | - |
| 1787874602 | 24.44° C | 65% | 1017.8 hPa | 0 mm | - | 29 W/m² | - |
* Rain latest hour (hover to see other rain measurements)
** Current wind speed in m/s (hover to see current wind gust speed)